Location: Plainartige
(45.6866°N, 1.7993°E)
Time: 03:05:39
(UTC+00:00)

Oscar 19 - Pass Details

Date: 01 July 2022
Orbit: 773 x 790 km, 98.8° (Epoch: 14 August)

Event Time Altitude Azimuth Distance (km) Brightness Sun altitude
Rises 02:05:15 0° 31° (NNE) 3,261 15.8 -15.3°
Reaches altitude 10° 02:08:38 10° 55° (NE) 2,326 14.2 -14.9°
Maximum altitude 02:11:30 15° 89° (E) 1,995 13.2 -14.7°
Drops below altitude 10° 02:14:22 10° 124° (SE) 2,316 13.1 -14.4°
Sets 02:17:42 0° 147° (SSE) 3,238 13.6 -14.1°
